| time (UTC) | temp C | wind direction | speed KPH | gust KPH | rain 1hr cm | rain 24hr cm | rain mn cm | humidity % | barometer mb |
| 20260508154627 | 12 | 293 | 11.3 | 32.2 | 0.00 | 0.00 | 0.00 | 53 | 1004.7 |
| 20260508154116 | 12 | 293 | 8.0 | 33.8 | 0.00 | 0.00 | 0.00 | 54 | 1004.9 |
| 20260508153607 | 11 | 338 | 12.9 | 33.8 | 0.00 | 0.00 | 0.00 | 54 | 1005.1 |
| 20260508153056 | 11 | 315 | 11.3 | 25.7 | 0.00 | 0.00 | 0.00 | 55 | 1004.9 |
| 20260508152547 | 11 | 225 | 9.7 | 38.6 | 0.00 | 0.00 | 0.00 | 55 | 1005.1 |
| 20260508152036 | 11 | 293 | 17.7 | 38.6 | 0.00 | 0.00 | 0.00 | 55 | 1005.3 |
| 20260508151526 | 11 | 293 | 8.0 | 37.0 | 0.00 | 0.00 | 0.00 | 55 | 1005.4 |
| 20260508151028 | 11 | 315 | 14.5 | 32.2 | 0.00 | 0.00 | 0.00 | 55 | 1005.3 |
| 20260508145955 | 11 | 270 | 11.3 | 43.5 | 0.00 | 0.00 | 0.00 | 56 | 1005.5 |
| 20260508145445 | 11 | 270 | 16.1 | 33.8 | 0.00 | 0.00 | 0.00 | 56 | 1005.3 |
| 20260508144936 | 11 | 293 | 12.9 | 29.0 | 0.00 | 0.00 | 0.00 | 57 | 1005.5 |
| 20260508144425 | 10 | 270 | 11.3 | 38.6 | 0.00 | 0.00 | 0.00 | 58 | 1005.3 |
| 20260508143915 | 10 | 293 | 16.1 | 38.6 | 0.00 | 0.00 | 0.00 | 58 | 1005.4 |
| 20260508143405 | 10 | 248 | 17.7 | 40.2 | 0.00 | 0.00 | 0.00 | 59 | 1005.5 |
| 20260508142858 | 9 | 293 | 17.7 | 43.5 | 0.00 | 0.00 | 0.00 | 59 | 1005.4 |
| 20260508142346 | 9 | 248 | 6.4 | 43.5 | 0.00 | 0.00 | 0.00 | 60 | 1005.5 |
| 20260508141835 | 9 | 293 | 3.2 | 37.0 | 0.00 | 0.00 | 0.00 | 60 | 1005.5 |
| 20260508141337 | 8 | 248 | 17.7 | 35.4 | 0.00 | 0.00 | 0.00 | 61 | 1005.5 |
| 20260508140827 | 8 | 248 | 17.7 | 38.6 | 0.00 | 0.00 | 0.00 | 60 | 1005.5 |
| 20260508135245 | 8 | 248 | 17.7 | 43.5 | 0.00 | 0.00 | 0.00 | 61 | 1005.6 |
| 20260508134734 | 8 | 270 | 19.3 | 43.5 | 0.00 | 0.00 | 0.00 | 61 | 1005.5 |
| 20260508134225 | 8 | 293 | 20.9 | 43.5 | 0.00 | 0.00 | 0.00 | 60 | 1005.5 |
| 20260508133714 | 9 | 248 | 20.9 | 37.0 | 0.00 | 0.00 | 0.00 | 61 | 1005.5 |
| 20260508133203 | 8 | 293 | 17.7 | 43.5 | 0.00 | 0.00 | 0.00 | 61 | 1005.5 |
| 20260508132156 | 8 | 248 | 14.5 | 40.2 | 0.00 | 0.00 | 0.00 | 61 | 1005.4 |
| 20260508131640 | 8 | 293 | 19.3 | 48.3 | 0.00 | 0.00 | 0.00 | 62 | 1005.4 |
| 20260508131125 | 8 | 293 | 24.1 | 48.3 | 0.00 | 0.00 | 0.00 | 62 | 1005.5 |
| 20260508130614 | 8 | 270 | 17.7 | 46.7 | 0.00 | 0.00 | 0.00 | 62 | 1005.3 |
| 20260508130115 | 8 | 248 | 14.5 | 43.5 | 0.00 | 0.00 | 0.00 | 63 | 1005.5 |
| 20260508125553 | 8 | 270 | 19.3 | 38.6 | 0.00 | 0.00 | 0.00 | 63 | 1005.3 |
| 20260508124533 | 8 | 270 | 14.5 | 38.6 | 0.00 | 0.00 | 0.00 | 63 | 1005.0 |
| 20260508124024 | 8 | 225 | 9.7 | 37.0 | 0.00 | 0.00 | 0.00 | 63 | 1005.0 |
| 20260508123516 | 8 | 270 | 12.9 | 37.0 | 0.00 | 0.00 | 0.00 | 63 | 1005.2 |
| 20260508123009 | 8 | 248 | 19.3 | 33.8 | 0.00 | 0.00 | 0.00 | 64 | 1005.1 |
| 20260508122457 | 8 | 248 | 16.1 | 33.8 | 0.00 | 0.00 | 0.00 | 64 | 1005.0 |
| 20260508121943 | 8 | 270 | 20.9 | 33.8 | 0.00 | 0.00 | 0.00 | 64 | 1005.1 |
| 20260508121432 | 8 | 225 | 17.7 | 33.8 | 0.00 | 0.00 | 0.00 | 64 | 1005.1 |
| 20260508120923 | 8 | 338 | 16.1 | 33.8 | 0.00 | 0.00 | 0.00 | 64 | 1005.0 |
| 20260508120412 | 8 | 225 | 12.9 | 32.2 | 0.00 | 0.00 | 0.00 | 64 | 1005.0 |
| 20260508115905 | 8 | 293 | 11.3 | 33.8 | 0.00 | 0.00 | 0.00 | 65 | 1005.1 |
| 20260508115357 | 8 | 293 | 11.3 | 38.6 | 0.00 | 0.00 | 0.00 | 65 | 1004.9 |
| 20260508114844 | 8 | 293 | 12.9 | 38.6 | 0.00 | 0.00 | 0.00 | 65 | 1004.8 |
| 20260508114332 | 8 | 293 | 12.9 | 32.2 | 0.00 | 0.00 | 0.00 | 65 | 1004.9 |
| 20260508113823 | 8 | 315 | 6.4 | 29.0 | 0.00 | 0.00 | 0.00 | 66 | 1004.7 |
| 20260508113311 | 8 | 225 | 11.3 | 38.6 | 0.00 | 0.00 | 0.00 | 65 | 1004.6 |
| 20260508112800 | 8 | 293 | 17.7 | 38.6 | 0.00 | 0.00 | 0.00 | 65 | 1004.6 |
| 20260508112251 | 8 | 270 | 14.5 | 38.6 | 0.00 | 0.00 | 0.00 | 65 | 1004.6 |
| 20260508111741 | 8 | 315 | 12.9 | 37.0 | 0.00 | 0.00 | 0.00 | 65 | 1004.5 |
| 20260508111232 | 8 | 293 | 14.5 | 37.0 | 0.00 | 0.00 | 0.00 | 65 | 1004.3 |
| 20260508110722 | 8 | 0 | 11.3 | 32.2 | 0.00 | 0.00 | 0.00 | 65 | 1004.2 |
| 20260508110211 | 8 | 315 | 9.7 | 35.4 | 0.00 | 0.00 | 0.00 | 64 | 1004.3 |
| 20260508105701 | 8 | 225 | 14.5 | 35.4 | 0.00 | 0.00 | 0.00 | 64 | 1004.3 |
| 20260508105151 | 8 | 248 | 17.7 | 29.0 | 0.00 | 0.00 | 0.00 | 64 | 1003.9 |
| 20260508104642 | 8 | 248 | 12.9 | 33.8 | 0.00 | 0.00 | 0.00 | 64 | 1004.0 |
| 20260508104130 | 8 | 315 | 9.7 | 33.8 | 0.00 | 0.00 | 0.00 | 64 | 1003.9 |
| 20260508103111 | 8 | 270 | 12.9 | 33.8 | 0.00 | 0.00 | 0.00 | 63 | 1003.7 |
| 20260508102559 | 8 | 270 | 11.3 | 33.8 | 0.00 | 0.00 | 0.00 | 63 | 1003.8 |
| 20260508102049 | 8 | 270 | 8.0 | 40.2 | 0.00 | 0.00 | 0.00 | 63 | 1003.9 |
| 20260508101540 | 8 | 315 | 12.9 | 40.2 | 0.00 | 0.00 | 0.00 | 62 | 1003.8 |
| 20260508101030 | 8 | 315 | 19.3 | 33.8 | 0.00 | 0.00 | 0.00 | 62 | 1003.6 |
| 20260508100520 | 8 | 293 | 11.3 | 32.2 | 0.00 | 0.00 | 0.00 | 61 | 1003.5 |
| 20260508100010 | 8 | 248 | 14.5 | 27.4 | 0.00 | 0.00 | 0.00 | 61 | 1003.4 |
| 20260508095459 | 8 | 270 | 12.9 | 33.8 | 0.00 | 0.00 | 0.00 | 60 | 1003.3 |
| 20260508094950 | 8 | 293 | 16.1 | 33.8 | 0.00 | 0.00 | 0.00 | 60 | 1003.4 |
| 20260508094435 | 8 | 315 | 12.9 | 29.0 | 0.00 | 0.00 | 0.00 | 60 | 1003.3 |
| 20260508093929 | 8 | 248 | 12.9 | 25.7 | 0.00 | 0.00 | 0.00 | 60 | 1003.3 |
| 20260508092908 | 8 | 225 | 11.3 | 43.5 | 0.00 | 0.00 | 0.00 | 59 | 1003.1 |
| 20260508091849 | 8 | 270 | 14.5 | 35.4 | 0.00 | 0.00 | 0.00 | 59 | 1002.8 |
| 20260508090828 | 8 | 293 | 12.9 | 32.2 | 0.00 | 0.00 | 0.00 | 59 | 1002.8 |
| 20260508090318 | 8 | 248 | 11.3 | 29.0 | 0.00 | 0.00 | 0.00 | 59 | 1002.9 |
| 20260508085809 | 8 | 338 | 17.7 | 40.2 | 0.00 | 0.00 | 0.00 | 59 | 1002.9 |
| 20260508085257 | 8 | 248 | 17.7 | 40.2 | 0.00 | 0.00 | 0.00 | 59 | 1002.8 |
| 20260508084752 | 8 | 293 | 11.3 | 37.0 | 0.00 | 0.00 | 0.00 | 59 | 1002.9 |
| 20260508084237 | 8 | 293 | 12.9 | 37.0 | 0.00 | 0.00 | 0.00 | 60 | 1003.0 |
| 20260508083732 | 8 | 338 | 11.3 | 33.8 | 0.00 | 0.00 | 0.00 | 60 | 1002.9 |
| 20260508083217 | 8 | 315 | 12.9 | 33.8 | 0.00 | 0.00 | 0.00 | 60 | 1002.8 |
| 20260508082709 | 8 | 293 | 14.5 | 25.7 | 0.00 | 0.00 | 0.00 | 60 | 1002.7 |
| 20260508082216 | 8 | 338 | 6.4 | 25.7 | 0.00 | 0.00 | 0.00 | 60 | 1002.9 |
| 20260508081647 | 8 | 293 | 12.9 | 37.0 | 0.00 | 0.00 | 0.00 | 60 | 1002.7 |
| 20260508081139 | 8 | 293 | 8.0 | 37.0 | 0.00 | 0.00 | 0.00 | 60 | 1002.5 |
| 20260508080630 | 8 | 293 | 12.9 | 29.0 | 0.00 | 0.00 | 0.00 | 59 | 1002.6 |
| 20260508075056 | 8 | 270 | 12.9 | 29.0 | 0.00 | 0.00 | 0.00 | 59 | 1002.6 |
| 20260508074037 | 8 | 315 | 12.9 | 38.6 | 0.00 | 0.00 | 0.00 | 59 | 1002.5 |
| 20260508073526 | 8 | 293 | 12.9 | 38.6 | 0.00 | 0.00 | 0.00 | 59 | 1002.6 |
| 20260508073027 | 8 | 270 | 8.0 | 38.6 | 0.00 | 0.00 | 0.00 | 60 | 1002.8 |
| 20260508072510 | 8 | 293 | 9.7 | 38.6 | 0.00 | 0.00 | 0.00 | 60 | 1002.8 |
| 20260508071956 | 8 | 293 | 4.8 | 25.7 | 0.00 | 0.00 | 0.00 | 61 | 1002.6 |
| 20260508071446 | 8 | 270 | 6.4 | 33.8 | 0.00 | 0.00 | 0.00 | 62 | 1002.5 |
| 20260508070937 | 8 | 315 | 8.0 | 33.8 | 0.00 | 0.00 | 0.00 | 62 | 1002.4 |
| 20260508070424 | 8 | 315 | 11.3 | 0.0 | 0.00 | 0.00 | 0.00 | 62 | 1002.5 |
| 20260508070217 | 8 | 315 | 14.5 | 0.0 | 0.00 | 0.00 | 0.00 | 63 | 1002.5 |
| 20260508065555 | 8 | 293 | 12.9 | 35.4 | 0.00 | 0.00 | 0.00 | 63 | 1002.4 |
| 20260508065035 | 8 | 270 | 11.3 | 32.2 | 0.00 | 0.00 | 0.00 | 64 | 1002.6 |
| 20260508064525 | 8 | 293 | 9.7 | 33.8 | 0.00 | 0.00 | 0.00 | 65 | 1002.7 |
| 20260508064015 | 9 | 293 | 12.9 | 33.8 | 0.00 | 0.00 | 0.00 | 66 | 1002.6 |
| 20260508063505 | 9 | 293 | 11.3 | 32.2 | 0.00 | 0.00 | 0.00 | 67 | 1002.7 |
| 20260508062955 | 9 | 315 | 6.4 | 27.4 | 0.00 | 0.00 | 0.00 | 67 | 1002.9 |
| 20260508062445 | 9 | 315 | 6.4 | 33.8 | 0.00 | 0.00 | 0.00 | 70 | 1002.7 |
| 20260508060404 | 9 | 315 | 9.7 | 27.4 | 0.00 | 0.00 | 0.00 | 70 | 1003.1 |
| 20260508055854 | 9 | 293 | 11.3 | 24.1 | 0.00 | 0.00 | 0.00 | 70 | 1003.2 |
| 20260508055343 | 9 | 315 | 6.4 | 32.2 | 0.00 | 0.00 | 0.00 | 69 | 1003.4 |
| 20260508054834 | 9 | 293 | 12.9 | 32.2 | 0.00 | 0.00 | 0.00 | 68 | 1003.4 |
| 20260508054324 | 9 | 315 | 12.9 | 27.4 | 0.00 | 0.00 | 0.00 | 68 | 1003.5 |
| 20260508053303 | 10 | 293 | 8.0 | 27.4 | 0.00 | 0.00 | 0.00 | 68 | 1003.5 |
| 20260508052754 | 9 | 293 | 8.0 | 24.1 | 0.00 | 0.00 | 0.00 | 69 | 1003.5 |
| 20260508052243 | 10 | 293 | 8.0 | 24.1 | 0.00 | 0.00 | 0.00 | 68 | 1003.5 |
| 20260508051736 | 10 | 315 | 8.0 | 25.7 | 0.00 | 0.00 | 0.00 | 68 | 1003.4 |
| 20260508051223 | 10 | 315 | 9.7 | 25.7 | 0.00 | 0.00 | 0.00 | 68 | 1003.7 |
| 20260508050714 | 10 | 293 | 12.9 | 25.7 | 0.00 | 0.00 | 0.00 | 68 | 1003.4 |
| 20260508050203 | 10 | 315 | 6.4 | 24.1 | 0.00 | 0.00 | 0.00 | 67 | 1003.4 |
| 20260508045653 | 10 | 293 | 8.0 | 22.5 | 0.00 | 0.00 | 0.00 | 65 | 1003.2 |
| 20260508045142 | 10 | 248 | 6.4 | 32.2 | 0.00 | 0.00 | 0.00 | 64 | 1003.2 |
| 20260508044122 | 10 | 270 | 16.1 | 43.5 | 0.00 | 0.00 | 0.00 | 62 | 1003.2 |
| 20260508043111 | 10 | 293 | 17.7 | 35.4 | 0.00 | 0.00 | 0.00 | 62 | 1003.1 |
| 20260508042552 | 10 | 248 | 19.3 | 35.4 | 0.00 | 0.00 | 0.00 | 63 | 1003.1 |
| 20260508042041 | 10 | 225 | 16.1 | 32.2 | 0.00 | 0.00 | 0.00 | 64 | 1003.2 |
| 20260508041541 | 10 | 248 | 12.9 | 43.5 | 0.00 | 0.00 | 0.00 | 65 | 1003.2 |
| 20260508041022 | 10 | 225 | 24.1 | 43.5 | 0.00 | 0.00 | 0.00 | 65 | 1003.1 |
| 20260508040511 | 10 | 293 | 22.5 | 38.6 | 0.00 | 0.00 | 0.00 | 66 | 1003.1 |
| 20260508035451 | 10 | 293 | 6.4 | 35.4 | 0.00 | 0.00 | 0.00 | 68 | 1002.8 |
| 20260508034942 | 10 | 203 | 8.0 | 35.4 | 0.00 | 0.00 | 0.00 | 68 | 1003.1 |
| 20260508034430 | 10 | 315 | 17.7 | 35.4 | 0.00 | 0.00 | 0.00 | 68 | 1003.0 |
| 20260508033411 | 10 | 270 | 12.9 | 40.2 | 0.00 | 0.00 | 0.00 | 69 | 1003.0 |
| 20260508032900 | 10 | 248 | 12.9 | 40.2 | 0.00 | 0.00 | 0.00 | 69 | 1002.9 |
| 20260508031329 | 10 | 315 | 8.0 | 40.2 | 0.00 | 0.00 | 0.00 | 69 | 1002.9 |
| 20260508030310 | 10 | 270 | 16.1 | 35.4 | 0.00 | 0.00 | 0.00 | 69 | 1002.9 |
| 20260508025805 | 10 | 248 | 19.3 | 51.5 | 0.00 | 0.00 | 3.61 | 69 | 1002.8 |
| 20260508024740 | 10 | 293 | 17.7 | 40.2 | 0.00 | 0.00 | 3.61 | 70 | 1003.0 |
| 20260508024229 | 10 | 248 | 16.1 | 48.3 | 0.00 | 0.00 | 3.61 | 71 | 1002.8 |
| 20260508023720 | 10 | 293 | 12.9 | 48.3 | 0.00 | 0.00 | 3.61 | 71 | 1002.6 |
| 20260508023210 | 10 | 270 | 12.9 | 43.5 | 0.00 | 0.00 | 3.61 | 73 | 1002.8 |
| 20260508022700 | 10 | 225 | 17.7 | 43.5 | 0.00 | 0.00 | 3.61 | 72 | 1002.7 |
| 20260508022148 | 10 | 225 | 16.1 | 43.5 | 0.00 | 0.00 | 3.61 | 73 | 1002.7 |
| 20260508021129 | 10 | 293 | 14.5 | 43.5 | 0.00 | 0.00 | 3.61 | 74 | 1002.8 |
| 20260508020619 | 10 | 248 | 12.9 | 43.5 | 0.00 | 0.00 | 3.61 | 75 | 1002.9 |
| 20260508020114 | 10 | 225 | 17.7 | 38.6 | 0.00 | 0.00 | 3.61 | 76 | 1002.7 |
| 20260508015559 | 10 | 248 | 17.7 | 38.6 | 0.00 | 0.00 | 3.61 | 76 | 1002.5 |
| 20260508015048 | 9 | 293 | 24.1 | 43.5 | 0.00 | 0.00 | 3.61 | 77 | 1002.7 |
| 20260508014538 | 9 | 225 | 17.7 | 43.5 | 0.00 | 0.00 | 3.61 | 78 | 1002.5 |
| 20260508014029 | 9 | 225 | 16.1 | 43.5 | 0.00 | 0.00 | 3.61 | 79 | 1002.5 |
| 20260508013522 | 9 | 225 | 12.9 | 46.7 | 0.00 | 0.00 | 3.61 | 78 | 1002.6 |
| 20260508013008 | 9 | 315 | 17.7 | 46.7 | 0.00 | 0.00 | 3.61 | 78 | 1002.5 |
| 20260508012458 | 10 | 270 | 20.9 | 46.7 | 0.00 | 0.00 | 3.61 | 78 | 1002.4 |
| 20260508011948 | 10 | 293 | 25.7 | 43.5 | 0.00 | 0.00 | 3.61 | 79 | 1002.5 |
| 20260508011438 | 10 | 293 | 19.3 | 38.6 | 0.00 | 0.00 | 3.61 | 80 | 1002.7 |
| 20260508010927 | 10 | 248 | 19.3 | 40.2 | 0.00 | 0.00 | 3.61 | 80 | 1002.9 |
| 20260508010417 | 10 | 248 | 17.7 | 40.2 | 0.00 | 0.00 | 3.61 | 80 | 1002.6 |
| 20260508005357 | 10 | 225 | 14.5 | 43.5 | 0.00 | 0.00 | 3.61 | 79 | 1002.5 |
| 20260508004847 | 10 | 248 | 24.1 | 48.3 | 0.00 | 0.00 | 3.61 | 77 | 1002.8 |
| 20260508004337 | 10 | 270 | 11.3 | 48.3 | 0.00 | 0.00 | 3.61 | 76 | 1002.8 |
| 20260508003828 | 11 | 270 | 24.1 | 48.3 | 0.00 | 0.00 | 3.61 | 75 | 1003.1 |
| 20260508003330 | 11 | 270 | 14.5 | 48.3 | 0.00 | 0.00 | 3.61 | 76 | 1003.2 |
| 20260508002807 | 11 | 270 | 17.7 | 48.3 | 0.00 | 0.00 | 3.61 | 76 | 1003.0 |
| 20260508002256 | 11 | 248 | 11.3 | 37.0 | 0.00 | 0.00 | 3.61 | 75 | 1003.0 |
| 20260508001746 | 11 | 0 | 12.9 | 32.2 | 0.00 | 0.00 | 3.61 | 75 | 1003.2 |
| 20260508001236 | 11 | 270 | 11.3 | 38.6 | 0.00 | 0.00 | 3.61 | 74 | 1003.4 |
| 20260508000726 | 11 | 248 | 12.9 | 43.5 | 0.00 | 0.00 | 3.61 | 75 | 1003.3 |
| 20260507235156 | 11 | 315 | 8.0 | 32.2 | 0.00 | 0.00 | 3.61 | 79 | 1003.3 |
| 20260507234645 | 11 | 293 | 12.9 | 32.2 | 0.00 | 0.00 | 3.61 | 79 | 1003.4 |
| 20260507234136 | 11 | 270 | 17.7 | 33.8 | 0.00 | 0.00 | 3.61 | 79 | 1003.2 |
| 20260507233626 | 11 | 315 | 16.1 | 35.4 | 0.00 | 0.00 | 3.61 | 78 | 1003.3 |
| 20260507233129 | 11 | 248 | 19.3 | 35.4 | 0.00 | 0.00 | 3.61 | 77 | 1003.3 |
| 20260507232605 | 11 | 270 | 17.7 | 33.8 | 0.00 | 0.00 | 3.61 | 77 | 1003.4 |
| 20260507232055 | 11 | 315 | 8.0 | 37.0 | 0.00 | 0.00 | 3.61 | 77 | 1003.2 |
| 20260507231544 | 11 | 248 | 16.1 | 37.0 | 0.00 | 0.00 | 3.61 | 77 | 1003.2 |
| 20260507231035 | 11 | 270 | 12.9 | 37.0 | 0.00 | 0.00 | 3.61 | 76 | 1003.5 |
| 20260507230525 | 11 | 293 | 6.4 | 37.0 | 0.00 | 0.00 | 3.61 | 76 | 1003.1 |
| 20260507230017 | 11 | 270 | 17.7 | 37.0 | 0.00 | 0.00 | 3.61 | 75 | 1003.2 |
| 20260507224954 | 11 | 293 | 8.0 | 22.5 | 0.00 | 0.00 | 3.61 | 77 | 1003.3 |
| 20260507224445 | 11 | 293 | 9.7 | 29.0 | 0.00 | 0.00 | 3.61 | 77 | 1003.1 |
| 20260507223424 | 11 | 293 | 9.7 | 29.0 | 0.00 | 0.00 | 3.61 | 78 | 1002.8 |
| 20260507222914 | 11 | 315 | 6.4 | 27.4 | 0.00 | 0.00 | 3.61 | 78 | 1002.8 |
| 20260507221854 | 11 | 248 | 16.1 | 33.8 | 0.00 | 0.00 | 3.61 | 77 | 1002.5 |
| 20260507221343 | 11 | 293 | 17.7 | 33.8 | 0.00 | 0.00 | 3.61 | 77 | 1002.6 |
| 20260507220834 | 11 | 338 | 9.7 | 29.0 | 0.00 | 0.00 | 3.61 | 76 | 1002.4 |
| 20260507220323 | 12 | 270 | 6.4 | 32.2 | 0.00 | 0.00 | 3.61 | 75 | 1002.0 |
| 20260507215813 | 12 | 338 | 12.9 | 38.6 | 0.00 | 0.00 | 3.61 | 75 | 1001.7 |
| 20260507214752 | 12 | 293 | 20.9 | 33.8 | 0.00 | 0.00 | 3.61 | 74 | 1001.9 |
| 20260507214243 | 12 | 225 | 12.9 | 29.0 | 0.00 | 0.00 | 3.61 | 74 | 1001.6 |
| 20260507213733 | 12 | 293 | 8.0 | 35.4 | 0.00 | 0.00 | 3.61 | 75 | 1002.0 |
| 20260507213223 | 12 | 270 | 16.1 | 35.4 | 0.00 | 0.00 | 3.61 | 74 | 1002.1 |
| 20260507212713 | 12 | 248 | 8.0 | 35.4 | 0.00 | 0.00 | 3.61 | 75 | 1002.2 |
| 20260507212202 | 12 | 225 | 16.1 | 46.7 | 0.00 | 0.00 | 3.61 | 76 | 1002.3 |
| 20260507211155 | 12 | 293 | 11.3 | 33.8 | 0.00 | 0.00 | 3.61 | 76 | 1002.4 |
| 20260507210122 | 12 | 248 | 20.9 | 33.8 | 0.00 | 0.00 | 3.61 | 75 | 1002.3 |
| 20260507205612 | 12 | 225 | 6.4 | 29.0 | 0.00 | 0.00 | 3.61 | 75 | 1002.2 |
| 20260507205102 | 12 | 270 | 6.4 | 29.0 | 0.00 | 0.00 | 3.61 | 74 | 1002.2 |
| 20260507204041 | 13 | 248 | 12.9 | 33.8 | 0.00 | 0.00 | 3.61 | 73 | 1001.7 |
| 20260507203531 | 13 | 248 | 8.0 | 25.7 | 0.00 | 0.00 | 3.61 | 73 | 1002.1 |
| 20260507203021 | 13 | 293 | 6.4 | 35.4 | 0.00 | 0.00 | 3.61 | 74 | 1001.6 |
| 20260507202511 | 13 | 270 | 12.9 | 35.4 | 0.00 | 0.00 | 3.61 | 73 | 1001.5 |
| 20260507202001 | 13 | 248 | 12.9 | 29.0 | 0.00 | 0.00 | 3.61 | 73 | 1001.7 |
| 20260507201451 | 13 | 315 | 16.1 | 29.0 | 0.00 | 0.00 | 3.61 | 72 | 1001.7 |
| 20260507200940 | 13 | 293 | 12.9 | 33.8 | 0.00 | 0.00 | 3.61 | 72 | 1001.4 |
| 20260507200430 | 13 | 293 | 9.7 | 40.2 | 0.00 | 0.00 | 3.61 | 72 | 1001.3 |
| 20260507195920 | 13 | 248 | 16.1 | 40.2 | 0.00 | 0.00 | 3.61 | 71 | 1001.2 |
| 20260507195410 | 13 | 293 | 17.7 | 38.6 | 0.00 | 0.00 | 3.61 | 71 | 1000.9 |
| 20260507194900 | 13 | 248 | 9.7 | 38.6 | 0.00 | 0.00 | 3.61 | 71 | 1000.4 |
| 20260507194350 | 13 | 293 | 20.9 | 43.5 | 0.00 | 0.00 | 3.61 | 71 | 1000.6 |
| 20260507192820 | 13 | 270 | 11.3 | 37.0 | 0.00 | 0.00 | 3.61 | 71 | 1000.0 |
| 20260507192310 | 13 | 248 | 19.3 | 37.0 | 0.00 | 0.00 | 3.61 | 71 | 1000.2 |
| 20260507191800 | 13 | 270 | 14.5 | 35.4 | 0.00 | 0.00 | 3.61 | 71 | 999.6 |
| 20260507190740 | 13 | 293 | 14.5 | 38.6 | 0.00 | 0.00 | 3.61 | 70 | 1000.5 |
| 20260507190242 | 13 | 225 | 12.9 | 38.6 | 0.00 | 0.00 | 3.61 | 70 | 1000.9 |
| 20260507185209 | 13 | 90 | 17.7 | 29.0 | 0.00 | 0.00 | 3.61 | 69 | 1000.9 |
| 20260507184659 | 13 | 225 | 3.2 | 29.0 | 0.00 | 0.00 | 3.61 | 69 | 1001.2 |
| 20260507184150 | 13 | 225 | 9.7 | 29.0 | 0.00 | 0.00 | 3.61 | 68 | 1001.6 |
| 20260507183639 | 13 | 248 | 12.9 | 37.0 | 0.00 | 0.00 | 3.61 | 67 | 1002.1 |
| 20260507183129 | 13 | 225 | 16.1 | 37.0 | 0.00 | 0.00 | 3.61 | 67 | 1002.2 |
| 20260507182106 | 14 | 293 | 6.4 | 32.2 | 0.00 | 0.00 | 3.61 | 66 | 1002.3 |
| 20260507181556 | 14 | 248 | 6.4 | 27.4 | 0.00 | 0.00 | 3.61 | 66 | 1002.4 |
| 20260507181048 | 14 | 315 | 9.7 | 27.4 | 0.00 | 0.00 | 3.61 | 65 | 1002.2 |
| 20260507180551 | 14 | 293 | 8.0 | 25.7 | 0.00 | 0.00 | 3.61 | 65 | 1002.5 |
| 20260507180033 | 14 | 225 | 12.9 | 25.7 | 0.00 | 0.00 | 3.61 | 65 | 1003.0 |
| 20260507173950 | 14 | 293 | 8.0 | 32.2 | 0.00 | 0.00 | 3.61 | 65 | 1003.4 |
| 20260507173438 | 13 | 293 | 12.9 | 32.2 | 0.00 | 0.00 | 3.61 | 65 | 1003.0 |
| 20260507172927 | 13 | 315 | 12.9 | 32.2 | 0.00 | 0.00 | 3.61 | 65 | 1003.0 |
| 20260507172417 | 13 | 270 | 9.7 | 37.0 | 0.00 | 0.00 | 3.61 | 65 | 1002.9 |
| 20260507171907 | 13 | 315 | 12.9 | 37.0 | 0.00 | 0.00 | 3.61 | 65 | 1002.7 |
| 20260507171357 | 13 | 315 | 8.0 | 27.4 | 0.00 | 0.00 | 3.61 | 67 | 1002.7 |
| 20260507170847 | 13 | 315 | 12.9 | 29.0 | 0.00 | 0.00 | 3.61 | 66 | 1002.2 |
| 20260507165826 | 13 | 270 | 12.9 | 32.2 | 0.00 | 0.00 | 3.61 | 66 | 1001.8 |
| 20260507165316 | 13 | 338 | 14.5 | 32.2 | 0.00 | 0.00 | 3.61 | 66 | 1001.5 |
| 20260507164257 | 13 | 338 | 6.4 | 33.8 | 0.00 | 0.00 | 3.61 | 67 | 1001.2 |
| 20260507163237 | 13 | 293 | 8.0 | 22.5 | 0.00 | 0.00 | 3.61 | 69 | 1000.9 |
| 20260507162726 | 13 | 293 | 6.4 | 22.5 | 0.00 | 0.00 | 3.61 | 69 | 1001.0 |
| 20260507162216 | 13 | 270 | 11.3 | 25.7 | 0.00 | 0.00 | 3.61 | 69 | 1001.6 |
| 20260507161706 | 13 | 293 | 8.0 | 25.7 | 0.00 | 0.00 | 3.61 | 69 | 1002.2 |
| 20260507161156 | 13 | 293 | 6.4 | 25.7 | 0.00 | 0.00 | 3.61 | 69 | 1002.4 |
| 20260507160646 | 13 | 248 | 8.0 | 27.4 | 0.00 | 0.00 | 3.61 | 69 | 1002.2 |
| 20260507160136 | 13 | 270 | 16.1 | 32.2 | 0.00 | 0.00 | 3.61 | 68 | 1002.8 |
| 20260507155626 | 13 | 315 | 12.9 | 32.2 | 0.00 | 0.00 | 3.61 | 69 | 1002.9 |
| 20260507155115 | 13 | 293 | 12.9 | 24.1 | 0.00 | 0.00 | 3.61 | 69 | 1002.8 |